Погода в Александровке Донской

Россия / Воронежская область     50°30′58″N   40°04′26″E
темп.,
°C
ветер,
м/с
пор.,
м/с
влажн.,
%
обл.,
%
осадки,
мм/ч
давл.,
гПа
погр.,
м
20 января, чт
чт2000:00−18сз2210095 0.1 101919
03:00−20сз2110094 0.1 102012
06:00−22зюз1110091 0.0 10209
09:00−20ююз2210074 0.0 102027
12:00−11ююз349164 0.0 1019187
15:00−10ююз36927 0.0 1018233
18:00−15ююв369736 0.0 101873
21:00−16ююв3109752 0.0 1017133
21 января, пт
пт2100:00−15ююв31098100 0.0 1016151
03:00−10ююв41391100 0.0 1014280
06:00−7ююв71695100 0.3 1010441
09:00−6ююв81895100 2.3 1008616
12:00−2ю81694100 1.4 1006739
15:000ю71293100 1.7 1004928
18:00−3зюз8158676 0.9 1006636
21:00−7юз613896 0.9 1009337
22 января, сб
сб2200:00−8ююз5139360 0.0 1010317
03:00−9ююз5139472 0.0 1011292
06:00−10ю412949 0.0 1011214
09:00−12ю399610 0.0 1013143
12:00−6ю49899 0.0 1013345
15:00−5ююв37905 0.0 1013345
18:00−12ююв229791 0.0 101514
21:00−14ю229978 0.0 101711
23 января, вс
вс2300:00−17ю1110078 0.0 10189
03:00−18вюв11100100 0.0 10199
06:00−16св11100100 0.0 10209
09:00−12ссв22100100 0.0 102144
12:00−6ссв3593100 0.0 1021231
15:00−5ссв4894100 0.0 1021368
18:00−4ссв61296100 0.2 1020433
21:00−4ссв61196100 1.1 1020453
24 января, пн
пн2400:00−3всв51097100 1.7 1019514
03:00−4в61095100 3.2 1020434
06:00−6в51095100 0.3 1020360
09:00−6в51094100 0.5 1022414
12:00−5в5891100 0.4 1022462
15:00−4в5894100 0.7 1022481
18:00−5всв4996100 0.4 1022373
21:00−5в4996100 1.6 1022351